MDT,Max TemperatureF,Mean TemperatureF,Min TemperatureF,Max Dew PointF,MeanDew PointF,Min DewpointF,Max Humidity, Mean Humidity, Min Humidity, Max Sea Level PressureIn, Mean Sea Level PressureIn, Min Sea Level PressureIn, Max VisibilityMiles, Mean VisibilityMiles, Min VisibilityMiles, Max Wind SpeedMPH, Mean Wind SpeedMPH, Max Gust SpeedMPH,PrecipitationIn, CloudCover, Events, WindDirDegrees
2012-10-1,78,60,41,35,31,27,67,42,16,30.33,30.15,29.89,10,10,7,25,6,33,0.00,0,,265
2012-10-2,75,59,42,38,31,20,76,45,14,29.96,29.84,29.73,10,10,10,25,12,33,0.00,1,,294
2012-10-3,43,37,31,36,30,26,96,80,64,30.60,30.36,29.99,10,10,8,24,11,29,0.09,7,Rain-Snow,318
2012-10-4,42,36,30,28,27,26,85,69,53,30.55,30.45,30.33,10,10,10,15,6,18,0.00,8,,302
2012-10-5,45,35,25,27,22,17,75,56,36,30.54,30.48,30.34,10,10,10,17,6,20,0.00,5,,298
2012-10-6,48,34,19,27,19,15,84,55,26,30.54,30.44,30.32,10,10,10,7,2,16,0.00,4,,33
2012-10-7,65,46,27,26,24,22,78,49,20,30.30,30.14,30.00,10,10,10,22,6,26,0.00,0,,260
2012-10-8,53,44,34,38,32,25,76,59,42,30.16,30.03,29.97,10,10,10,20,6,23,T,5,,327
2012-10-9,57,47,36,32,30,28,82,58,33,30.24,30.16,30.10,10,10,10,12,4,14,0.00,5,,336
2012-10-10,67,48,29,38,31,26,85,55,24,30.18,30.08,29.93,10,10,9,22,5,25,0.00,2,,320
2012-10-11,57,46,35,34,30,27,76,58,40,30.28,30.14,29.95,10,10,10,14,5,16,0.00,4,,303
2012-10-12,74,52,29,33,26,17,92,52,12,30.03,29.88,29.73,10,10,7,16,3,22,0.00,0,,281
2012-10-13,63,57,51,40,34,21,59,41,22,30.18,30.02,29.85,10,10,10,28,11,38,T,4,Rain,261
2012-10-14,66,56,46,40,36,32,66,50,34,30.23,30.11,29.94,10,10,10,16,3,21,0.00,1,,258
2012-10-15,65,54,43,44,38,31,76,54,32,29.92,29.88,29.81,10,10,9,28,8,36,T,6,Rain,262
2012-10-16,59,51,42,48,33,19,93,60,26,29.92,29.66,29.48,10,10,2,40,15,58,0.26,5,Rain,273
2012-10-17,51,44,36,22,19,16,48,36,24,30.30,30.11,29.92,10,10,10,33,17,44,0.00,1,,279
2012-10-18,60,43,26,26,22,16,78,48,18,30.39,30.26,30.09,10,10,8,23,5,29,0.00,0,,268
2012-10-19,69,52,34,38,31,26,75,51,26,30.04,29.84,29.70,10,10,10,25,7,32,0.00,2,,263
2012-10-20,56,44,31,43,31,20,76,59,41,29.92,29.72,29.60,10,10,10,25,7,33,0.01,4,Rain,247
2012-10-21,49,37,24,23,19,13,75,50,25,30.03,29.96,29.91,10,10,10,10,3,13,0.00,1,,165
2012-10-22,42,34,26,32,25,18,100,73,46,29.96,29.77,29.64,10,5,1,17,5,21,0.19,6,Snow,291
2012-10-23,31,26,20,25,23,18,96,87,78,30.14,29.92,29.68,10,6,1,14,4,16,0.06,7,Snow,288
2012-10-24,32,27,21,25,22,19,92,84,75,30.33,30.19,30.02,10,10,10,12,4,15,0.00,7,,293
2012-10-25,30,26,22,21,17,15,88,71,53,30.60,30.44,30.23,10,8,2,12,6,14,T,7,Snow,300
2012-10-26,35,27,19,26,21,15,92,78,63,30.59,30.40,30.10,10,10,8,6,1,6,T,3,Snow,285
2012-10-27,44,36,28,34,29,25,92,77,62,30.22,30.11,29.97,10,8,1,8,1,10,0.04,8,Snow,65
2012-10-28,60,48,36,38,35,32,92,65,37,30.03,29.95,29.86,10,10,10,24,5,32,T,7,,235
2012-10-29,64,54,43,41,37,30,82,60,37,30.06,29.96,29.90,10,10,10,32,8,43,0.00,4,,278
2012-10-30,66,51,36,36,33,29,76,52,28,30.14,30.04,29.94,10,10,10,20,3,25,0.00,2,,238
2012-10-31,62,52,41,37,36,35,76,58,39,30.07,29.98,29.88,10,10,10,13,2,16,0.00,2,,251